Weather History for KDOV - January, 2013

Change the Weather History Date:

Monday, January 21, 2013

  Actual Average Record
Temperature  
Mean Temperature 32 °F -  
Max Temperature 38 °F 40 °F 66 °F (1959)
Min Temperature 26 °F 24 °F -5 °F (1985)
Degree Days  
Heating Degree Days 33    
Moisture  
Dew Point 27 °F    
Average Humidity 79    
Maximum Humidity 100    
Minimum Humidity 45    
Precipitation  
Precipitation 0.02 in - - ()
Sea Level Pressure  
Sea Level Pressure 29.91 in    
Wind  
Wind Speed 12 mph (NNW)    
Max Wind Speed 23 mph    
Max Gust Speed 28 mph    
Visibility 7 miles    
Events Rain , Snow    
Averages and records for this station are not official NWS values.
T = Trace of Precipitation, MM = Missing Value Source: NWS Daily Summary

Daily Weather History Graph

Daily Weather History Graph

Search for Another Location

Airport or City:

Trip Planner

Search our weather history database for the weather conditions in past years. The results will help you decide how hot, cold, wet, or windy it might be!

Date:

Astronomy

Jan. 21, 2013 Rise Set
Actual Time 7:16 AM EST 5:10 PM EST
Civil Twilight 6:47 AM EST 5:39 PM EST
Nautical Twilight 6:15 AM EST 6:11 PM EST
Astronomical Twilight 5:43 AM EST 6:43 PM EST
Moon 12:48 PM EST (1/21) 2:42 AM EST (1/21)
Length of Visible Light 10h 51m
Length of Day
9h 53m
Waxing Gibbous, 75% of the Moon is Illuminated
Jan 21
Waxing Gibbous
Jan 26
Full
Feb 3
Last Quarter
Feb 10
New
Feb 17
First Quarter

Hourly Weather History & Observations

Time (EST) Temp. Windchill Dew Point Humidity Pressure Visibility Wind Dir Wind Speed Gust Speed Precip Events Conditions
12:55 AM 33.3 °F 23.7 °F 15.8 °F 49% 30.10 in 10.0 mi NNW 13.8 mph - N/A   Clear
1:55 AM 32.0 °F 24.2 °F 15.8 °F 51% 30.11 in 10.0 mi NNW 9.2 mph - N/A   Clear
2:55 AM 30.9 °F 18.7 °F 16.5 °F 55% 30.09 in 10.0 mi North 19.6 mph - N/A   Clear
3:55 AM 30.2 °F 20.2 °F 14.9 °F 53% 30.09 in 10.0 mi NNW 12.7 mph - N/A   Clear
4:55 AM 28.4 °F 24.6 °F 14.7 °F 57% 30.10 in 10.0 mi NW 3.5 mph - N/A   Clear
5:55 AM 26.8 °F 20.2 °F 15.4 °F 62% 30.10 in 10.0 mi NW 5.8 mph - N/A   Clear
6:55 AM 28.4 °F - 15.3 °F 58% 30.12 in 10.0 mi Calm Calm - N/A   Clear
7:55 AM 30.0 °F - 14.5 °F 53% 30.13 in 10.0 mi Calm Calm - N/A   Clear
8:55 AM 31.8 °F - 12.9 °F 46% 30.12 in 10.0 mi Calm Calm - N/A   Mostly Cloudy
9:55 AM 34.0 °F 31.0 °F 14.7 °F 45% 30.12 in 10.0 mi SSE 3.5 mph - N/A   Clear
10:55 AM 35.2 °F - 16.2 °F 46% 30.09 in 10.0 mi Calm Calm - N/A   Clear
11:55 AM 36.5 °F 31.0 °F 18.5 °F 48% 30.04 in 10.0 mi East 6.9 mph - N/A   Mostly Cloudy
12:55 PM 35.2 °F 27.6 °F 18.9 °F 51% 30.00 in 10.0 mi ESE 10.4 mph - N/A   Mostly Cloudy
1:55 PM 36.0 °F 31.1 °F 21.6 °F 56% 29.95 in 10.0 mi East 5.8 mph - N/A   Overcast
2:55 PM 37.9 °F 30.5 °F 23.7 °F 57% 29.90 in 10.0 mi East 11.5 mph - N/A   Overcast
3:55 PM 38.5 °F 31.6 °F 27.3 °F 64% 29.86 in 10.0 mi ESE 10.4 mph 18.4 mph N/A   Overcast
4:55 PM 37.4 °F 30.8 °F 28.9 °F 71% 29.84 in 10.0 mi ESE 9.2 mph - N/A   Clear
5:55 PM 36.7 °F 30.5 °F 30.6 °F 78% 29.82 in 10.0 mi ESE 8.1 mph - N/A   Mostly Cloudy
6:55 PM 38.7 °F 34.3 °F 32.0 °F 77% 29.80 in 10.0 mi East 5.8 mph - N/A   Overcast
7:06 PM 37.4 °F 33.8 °F 32.0 °F 81% 29.80 in 10.0 mi NE 4.6 mph - N/A Rain Light Rain
7:22 PM 37.4 °F 30.8 °F 32.0 °F 81% 29.81 in 10.0 mi NNW 9.2 mph - N/A   Overcast
7:33 PM 37.4 °F 28.2 °F 32.0 °F 81% 29.83 in 10.0 mi NNW 16.1 mph - N/A   Overcast
7:35 PM 37.4 °F 27.5 °F 32.0 °F 81% 29.83 in 10.0 mi NW 18.4 mph - N/A Snow Light Snow
7:36 PM 37.4 °F 27.8 °F 32.0 °F 81% 29.83 in 10.0 mi NNW 17.3 mph - N/A Snow Light Snow
7:42 PM 37.4 °F 27.5 °F 32.0 °F 81% 29.85 in 5.0 mi NNW 18.4 mph 25.3 mph N/A Snow Light Snow
7:43 PM 35.6 °F 25.2 °F 32.0 °F 87% 29.85 in 4.0 mi NNW 18.4 mph 25.3 mph N/A Snow Light Snow
7:47 PM 33.8 °F 22.2 °F 32.0 °F 93% 29.85 in 3.0 mi NNW 20.7 mph 26.5 mph N/A Snow Light Snow
7:48 PM 33.8 °F 22.2 °F 32.0 °F 93% 29.85 in 2.5 mi NNW 20.7 mph 26.5 mph N/A Snow Light Snow
7:49 PM 33.8 °F 22.2 °F 32.0 °F 93% 29.86 in 2.0 mi NNW 20.7 mph 26.5 mph N/A Snow Light Snow
7:50 PM 33.8 °F 22.5 °F 32.0 °F 93% 29.86 in 1.8 mi NNW 19.6 mph 26.5 mph N/A Snow Light Snow
7:52 PM 33.8 °F 22.5 °F 32.0 °F 93% 29.86 in 1.2 mi NNW 19.6 mph 26.5 mph N/A Snow Light Snow
7:53 PM 33.8 °F 22.5 °F 32.0 °F 93% 29.86 in 1.2 mi NNW 19.6 mph 26.5 mph N/A Snow Light Snow
7:55 PM 32.7 °F 20.1 °F 32.5 °F 99% 29.86 in 1.2 mi NNW 23.0 mph 26.5 mph 0.01 in Snow Light Snow
7:59 PM 32.0 °F 20.1 °F 32.0 °F 100% 29.86 in 1.5 mi NNW 19.6 mph 26.5 mph N/A Snow Light Snow
8:03 PM 32.0 °F 20.1 °F 32.0 °F 100% 29.86 in 2.0 mi NNW 19.6 mph 26.5 mph N/A Snow Light Snow
8:07 PM 32.0 °F 20.1 °F 32.0 °F 100% 29.86 in 2.5 mi NNW 19.6 mph 26.5 mph N/A Snow Light Snow
8:16 PM 32.0 °F 20.5 °F 32.0 °F 100% 29.86 in 1.8 mi NNW 18.4 mph 27.6 mph N/A Snow Light Snow
8:21 PM 32.0 °F 20.8 °F 32.0 °F 100% 29.86 in 1.2 mi NNW 17.3 mph - N/A Snow Light Snow
8:24 PM 32.0 °F 21.2 °F 30.2 °F 93% 29.86 in 1.0 mi NNW 16.1 mph - N/A Snow Light Snow
8:25 PM 32.0 °F 21.6 °F 30.2 °F 93% 29.86 in 1.0 mi NNW 15.0 mph - N/A Snow Light Snow
8:26 PM 32.0 °F 21.6 °F 30.2 °F 93% 29.86 in 1.0 mi NNW 15.0 mph - N/A Snow Light Snow
8:27 PM 32.0 °F 22.1 °F 30.2 °F 93% 29.86 in 1.2 mi NNW 13.8 mph - N/A Snow Light Snow
8:30 PM 32.0 °F 22.5 °F 30.2 °F 93% 29.86 in 1.5 mi NNW 12.7 mph - N/A Snow Light Snow
8:32 PM 32.0 °F 22.5 °F 30.2 °F 93% 29.86 in 1.8 mi NNW 12.7 mph - N/A Snow Light Snow
8:33 PM 32.0 °F 22.5 °F 30.2 °F 93% 29.86 in 2.0 mi NNW 12.7 mph - N/A Snow Light Snow
8:36 PM 32.0 °F 23.0 °F 30.2 °F 93% 29.87 in 3.0 mi NNW 11.5 mph - N/A Snow Light Snow
8:42 PM 32.0 °F 23.6 °F 30.2 °F 93% 29.87 in 4.0 mi NNW 10.4 mph - N/A Snow Light Snow
8:55 PM 31.3 °F 21.6 °F 30.9 °F 99% 29.87 in 8.0 mi NNW 12.7 mph - 0.01 in Snow Light Snow
8:57 PM 32.0 °F 21.6 °F 30.2 °F 93% 29.87 in 9.0 mi NNW 15.0 mph - N/A Rain Light Freezing Rain
9:01 PM 32.0 °F 22.5 °F 30.2 °F 93% 29.87 in 10.0 mi NNW 12.7 mph - N/A Rain Light Freezing Rain
9:26 PM 32.0 °F 20.1 °F 30.2 °F 93% 29.87 in 10.0 mi NNW 19.6 mph - N/A   Overcast
9:55 PM 30.4 °F 19.5 °F 28.0 °F 91% 29.88 in 10.0 mi NNW 15.0 mph - 0.00 in   Overcast
10:55 PM 27.9 °F 19.8 °F 25.3 °F 90% 29.89 in 10.0 mi NW 8.1 mph - N/A   Clear
11:55 PM 27.9 °F 17.8 °F 22.5 °F 80% 29.90 in 10.0 mi NW 11.5 mph - N/A   Clear